Home > Weather > Metlakatla > Past weeks

Flag for USA Weather for the Past 2 Weeks in Metlakatla, Alaska, USA

Now
46 °F

Mostly cloudy.


Feels Like: 40 °F
Forecast: 43 / 49 °F
Wind: 16 mph from Southeast

Location: Metlakatla - Metlakatla Seaplane Base

Current Time: Apr 28, 2016 at 2:17:59 PM

Latest Report: Apr 28, 2016 at 1:36 PM


Visibility: 10 mi

Pressure: 29.94 "Hg

Humidity: 82%

Dew Point: 41 °F

Location of MetlakatlaLocation

Historic Weather in Metlakatla — Graph

°F

Metlakatla Temperature Yesterday

Maximum temperature yesterday: 57 °F (at 4:36 PM)
Minimum temperature yesterday: 43 °F (at 2:36 AM)
Average temperature yesterday: 49 °F

High & Low Weather Summary for the Past Weeks

 TemperatureHumidityPressure
High64 °F (Apr 20, 3:56 PM)100% (Apr 20, 6:36 AM)30.32 "Hg (Apr 20, 6:36 AM)
Low39 °F (Apr 19, 2:56 AM)34% (Apr 20, 3:36 PM)29.67 "Hg (Apr 22, 12:16 PM)
Average49 °F77%29.96 "Hg
* Reported Apr 13 1:16 PM — Apr 28 1:16 PM, Metlakatla, Weather by CustomWeather, © 2016

Note: Actual official high and low records may vary slightly from our data, if they occured in-between our weather recording intervals... More about our weather records

Advertising

Metlakatla Weather History for the Previous 24 Hours

Scroll right to see more
 ConditionsComfort  
Time TempWeatherWind HumidityBarometerVisibility
1:16 PM
Thu, Apr 28
46 °FMostly cloudy.13 mph87%29.94 "Hg10 mi
12:56 PM46 °FMostly cloudy.13 mph82%29.94 "Hg10 mi
12:36 PM46 °FMostly cloudy.15 mph82%29.94 "Hg10 mi
12:16 PM46 °FCloudy.9 mph82%29.94 "Hg9 mi
11:56 AM46 °FMore clouds than sun.12 mph76%29.94 "Hg10 mi
11:36 AM46 °FCloudy.13 mph76%29.94 "Hg10 mi
11:16 AM46 °FMostly cloudy.9 mph82%29.94 "Hg10 mi
10:56 AM46 °FCloudy.8 mph76%29.94 "Hg10 mi
10:36 AM46 °FMore clouds than sun.9 mph76%29.93 "Hg10 mi
10:16 AM45 °FMostly cloudy.10 mph81%29.93 "Hg10 mi
9:56 AM45 °FMostly cloudy.12 mph81%29.94 "Hg10 mi
9:36 AM45 °FMostly cloudy.10 mph81%29.95 "Hg10 mi
9:16 AM46 °FBroken clouds.13 mph76%29.95 "Hg10 mi
8:56 AM45 °FCloudy.8 mph81%29.94 "Hg10 mi
8:36 AM46 °FCloudy.12 mph76%29.94 "Hg10 mi
8:16 AM46 °FMore clouds than sun.12 mph76%29.94 "Hg10 mi
7:56 AM45 °FBroken clouds.15 mph76%29.95 "Hg10 mi
7:36 AM45 °FCloudy.6 mph76%29.95 "Hg10 mi
7:16 AM45 °FMostly cloudy.6 mph76%29.95 "Hg10 mi
6:56 AM45 °FOvercast.6 mph76%29.96 "Hg10 mi
6:36 AM46 °FMostly cloudy.9 mph71%29.95 "Hg10 mi
5:56 AM48 °FPartly cloudy.9 mph62%29.95 "Hg10 mi
5:36 AM48 °FMostly cloudy.7 mph62%29.95 "Hg10 mi
5:16 AM48 °FMostly cloudy.7 mph66%29.95 "Hg10 mi
4:36 AM48 °FPassing clouds.7 mph66%29.97 "Hg10 mi
4:16 AM48 °FPartly cloudy.8 mph66%29.98 "Hg10 mi
3:56 AM48 °FMostly cloudy.8 mph66%29.98 "Hg10 mi
3:36 AM48 °FPassing clouds.7 mph66%29.98 "Hg10 mi
3:16 AM46 °FPassing clouds.7 mph66%29.99 "Hg10 mi
2:56 AM48 °FPassing clouds.3 mph62%29.99 "Hg10 mi
2:36 AM48 °FPassing clouds.3 mph62%29.99 "Hg10 mi
1:56 AM48 °FClear.6 mph66%29.99 "Hg10 mi
1:36 AM48 °FPassing clouds.8 mph58%30.00 "Hg10 mi
1:16 AM48 °FPassing clouds.5 mph62%30.01 "Hg10 mi
12:36 AM48 °FPassing clouds.3 mph58%30.02 "Hg10 mi
11:36 PM
Wed, Apr 27
46 °FMostly cloudy.3 mph66%30.04 "Hg10 mi
11:16 PM46 °FOvercast.3 mph66%30.04 "Hg10 mi
9:56 PM46 °FPassing clouds.No wind66%30.05 "Hg10 mi
9:16 PM46 °FPassing clouds.5 mph66%30.06 "Hg10 mi
8:56 PM46 °FPassing clouds.5 mph66%30.06 "Hg10 mi
7:56 PM48 °FSunny.3 mph62%30.07 "Hg10 mi
7:36 PM50 °FSunny.5 mph54%30.07 "Hg10 mi
7:16 PM52 °FSunny.5 mph50%30.07 "Hg10 mi
6:36 PM55 °FSunny.6 mph55%30.07 "Hg10 mi
6:16 PM54 °FSunny.7 mph54%30.07 "Hg10 mi
5:56 PM52 °FSunny.9 mph58%30.08 "Hg10 mi
5:16 PM54 °FSunny.13 mph54%30.08 "Hg10 mi
4:56 PM57 °FSunny.12 mph55%30.08 "Hg10 mi
4:36 PM57 °FSunny.7 mph51%30.09 "Hg10 mi
3:16 PM52 °FSunny.14 mph62%30.10 "Hg10 mi
2:36 PM52 °FSunny.15 mph58%30.10 "Hg10 mi
Weather by CustomWeather, © 2016

See weather overviewHow to use our weather pages